TimeAKDT,TemperatureF,Dew PointF,Humidity,Sea Level PressureIn,VisibilityMPH,Wind Direction,Wind SpeedMPH,Gust SpeedMPH,PrecipitationIn,Events,Conditions,WindDirDegrees,DateUTC
12:16 AM,48.2,44.6,87,29.65,10.0,SE,6.9,-,N/A,,Overcast,130,2013-09-27 08:16:00
12:36 AM,48.2,44.6,87,29.64,10.0,SE,6.9,-,N/A,,Overcast,130,2013-09-27 08:36:00
12:56 AM,48.2,44.6,87,29.64,10.0,SE,8.1,-,N/A,,Overcast,130,2013-09-27 08:56:00
1:16 AM,48.2,44.6,87,29.63,10.0,SE,8.1,-,N/A,,Overcast,140,2013-09-27 09:16:00
1:36 AM,48.2,44.6,87,29.63,10.0,SE,8.1,-,N/A,,Mostly Cloudy,130,2013-09-27 09:36:00
1:56 AM,48.2,44.6,87,29.63,10.0,SE,5.8,-,N/A,,Overcast,140,2013-09-27 09:56:00
2:16 AM,48.2,44.6,87,29.63,10.0,SE,5.8,-,N/A,,Overcast,130,2013-09-27 10:16:00
2:36 AM,48.2,44.6,87,29.61,10.0,SE,9.2,-,N/A,,Overcast,140,2013-09-27 10:36:00
2:56 AM,50.0,44.6,82,29.61,10.0,SSE,8.1,-,N/A,,Overcast,150,2013-09-27 10:56:00
3:16 AM,50.0,44.6,82,29.60,10.0,SE,8.1,-,N/A,,Overcast,130,2013-09-27 11:16:00
3:36 AM,50.0,44.6,82,29.60,10.0,ESE,10.4,-,N/A,,Overcast,120,2013-09-27 11:36:00
3:56 AM,50.0,44.6,82,29.59,10.0,SE,10.4,-,N/A,,Overcast,130,2013-09-27 11:56:00
4:16 AM,50.0,44.6,82,29.59,10.0,SE,9.2,-,N/A,,Overcast,140,2013-09-27 12:16:00
4:36 AM,50.0,44.6,82,29.58,10.0,SE,6.9,-,N/A,,Overcast,140,2013-09-27 12:36:00
4:56 AM,50.0,44.6,82,29.58,10.0,SE,8.1,-,N/A,,Overcast,140,2013-09-27 12:56:00
5:16 AM,50.0,44.6,82,29.57,10.0,SE,10.4,-,N/A,,Overcast,140,2013-09-27 13:16:00
5:36 AM,50.0,44.6,82,29.56,10.0,SSE,9.2,-,N/A,,Overcast,150,2013-09-27 13:36:00
5:56 AM,50.0,44.6,82,29.55,10.0,SE,12.7,17.3,N/A,,Overcast,140,2013-09-27 13:56:00
6:16 AM,50.0,44.6,82,29.55,10.0,SE,9.2,-,N/A,,Overcast,140,2013-09-27 14:16:00
6:36 AM,50.0,42.8,76,29.54,10.0,SE,8.1,-,N/A,,Overcast,140,2013-09-27 14:36:00
6:56 AM,50.0,42.8,76,29.53,10.0,SE,10.4,16.1,N/A,,Overcast,140,2013-09-27 14:56:00
7:16 AM,51.8,42.8,71,29.52,10.0,SE,11.5,18.4,N/A,,Overcast,140,2013-09-27 15:16:00
7:36 AM,50.0,44.6,82,29.51,10.0,SE,11.5,16.1,N/A,,Overcast,140,2013-09-27 15:36:00
7:56 AM,51.8,44.6,76,29.51,10.0,SE,12.7,-,N/A,,Overcast,130,2013-09-27 15:56:00
8:16 AM,51.8,42.8,71,29.50,10.0,SE,12.7,-,N/A,,Overcast,140,2013-09-27 16:16:00
8:36 AM,51.8,42.8,71,29.49,10.0,SE,16.1,-,N/A,,Overcast,140,2013-09-27 16:36:00
8:56 AM,51.8,44.6,76,29.49,10.0,SE,15.0,21.9,N/A,,Overcast,140,2013-09-27 16:56:00
9:16 AM,51.8,44.6,76,29.48,10.0,SE,17.3,20.7,N/A,,Overcast,140,2013-09-27 17:16:00
9:36 AM,51.8,44.6,76,29.47,10.0,SE,17.3,21.9,N/A,,Overcast,140,2013-09-27 17:36:00
9:56 AM,51.8,44.6,76,29.46,10.0,SE,15.0,20.7,N/A,,Overcast,140,2013-09-27 17:56:00
10:16 AM,51.8,44.6,76,29.45,10.0,ESE,13.8,19.6,N/A,,Overcast,120,2013-09-27 18:16:00
10:36 AM,51.8,44.6,76,29.44,10.0,SE,15.0,21.9,N/A,,Overcast,140,2013-09-27 18:36:00
10:56 AM,51.8,44.6,76,29.44,10.0,SE,15.0,21.9,N/A,,Overcast,140,2013-09-27 18:56:00
11:16 AM,51.8,44.6,76,29.42,10.0,SSE,11.5,19.6,N/A,,Overcast,150,2013-09-27 19:16:00
11:36 AM,51.8,44.6,76,29.41,10.0,SE,16.1,20.7,N/A,,Overcast,140,2013-09-27 19:36:00
11:56 AM,51.8,44.6,76,29.40,10.0,SE,17.3,25.3,N/A,,Overcast,140,2013-09-27 19:56:00
12:16 PM,51.8,44.6,76,29.40,10.0,SE,16.1,24.2,N/A,,Overcast,140,2013-09-27 20:16:00
12:36 PM,51.8,44.6,76,29.38,10.0,SE,13.8,21.9,N/A,,Overcast,130,2013-09-27 20:36:00
12:56 PM,51.8,44.6,76,29.38,10.0,SE,15.0,25.3,N/A,,Mostly Cloudy,140,2013-09-27 20:56:00
1:16 PM,51.8,44.6,76,29.36,10.0,SE,15.0,24.2,N/A,,Mostly Cloudy,140,2013-09-27 21:16:00
1:36 PM,51.8,44.6,76,29.35,10.0,SE,15.0,23.0,N/A,,Mostly Cloudy,140,2013-09-27 21:36:00
1:56 PM,51.8,44.6,76,29.34,10.0,SE,21.9,27.6,N/A,,Mostly Cloudy,130,2013-09-27 21:56:00
2:16 PM,53.6,42.8,67,29.33,10.0,SE,19.6,26.5,N/A,,Mostly Cloudy,130,2013-09-27 22:16:00
2:36 PM,51.8,44.6,76,29.32,10.0,SE,16.1,26.5,N/A,,Overcast,130,2013-09-27 22:36:00
2:56 PM,51.8,44.6,76,29.31,10.0,SE,15.0,26.5,N/A,,Overcast,140,2013-09-27 22:56:00
3:16 PM,51.8,44.6,76,29.30,10.0,SE,17.3,23.0,N/A,,Overcast,140,2013-09-27 23:16:00
3:36 PM,51.8,42.8,71,29.28,10.0,SE,17.3,25.3,N/A,,Overcast,130,2013-09-27 23:36:00
3:56 PM,51.8,42.8,71,29.27,10.0,SE,20.7,29.9,N/A,,Overcast,130,2013-09-27 23:56:00
4:16 PM,51.8,41.0,67,29.25,10.0,SE,16.1,23.0,N/A,,Overcast,130,2013-09-28 00:16:00
4:36 PM,53.6,39.2,58,29.24,10.0,SE,15.0,31.1,N/A,,Overcast,130,2013-09-28 00:36:00
4:56 PM,53.6,41.0,62,29.23,10.0,ESE,16.1,-,N/A,,Overcast,120,2013-09-28 00:56:00
5:16 PM,51.8,41.0,67,29.22,10.0,SE,10.4,20.7,N/A,,Overcast,130,2013-09-28 01:16:00
5:36 PM,53.6,39.2,58,29.20,10.0,SE,13.8,-,N/A,,Overcast,130,2013-09-28 01:36:00
5:56 PM,53.6,39.2,58,29.19,10.0,East,8.1,-,N/A,,Overcast,100,2013-09-28 01:56:00
6:16 PM,53.6,39.2,58,29.18,10.0,SE,13.8,19.6,N/A,,Overcast,130,2013-09-28 02:16:00
6:36 PM,53.6,39.2,58,29.17,10.0,ESE,17.3,28.8,N/A,,Overcast,110,2013-09-28 02:36:00
6:56 PM,53.6,39.2,58,29.15,10.0,SE,6.9,18.4,N/A,,Overcast,130,2013-09-28 02:56:00
7:16 PM,53.6,39.2,58,29.14,10.0,ESE,12.7,24.2,N/A,,Overcast,110,2013-09-28 03:16:00
7:36 PM,53.6,39.2,58,29.14,10.0,East,15.0,24.2,N/A,,Overcast,100,2013-09-28 03:36:00
7:56 PM,53.6,39.2,58,29.13,10.0,East,10.4,-,N/A,,Overcast,80,2013-09-28 03:56:00
8:16 PM,53.6,39.2,58,29.12,10.0,East,10.4,-,N/A,,Overcast,90,2013-09-28 04:16:00
8:36 PM,53.6,37.4,54,29.12,10.0,East,11.5,19.6,N/A,,Overcast,100,2013-09-28 04:36:00
8:56 PM,53.6,37.4,54,29.12,10.0,East,10.4,17.3,N/A,,Overcast,100,2013-09-28 04:56:00
9:16 PM,53.6,37.4,54,29.12,10.0,East,10.4,21.9,N/A,,Overcast,100,2013-09-28 05:16:00
9:36 PM,53.6,37.4,54,29.11,10.0,East,8.1,-,N/A,,Overcast,90,2013-09-28 05:36:00
9:56 PM,53.6,37.4,54,29.10,10.0,East,10.4,16.1,N/A,,Overcast,90,2013-09-28 05:56:00
10:16 PM,53.6,37.4,54,29.09,10.0,East,9.2,-,N/A,,Overcast,90,2013-09-28 06:16:00
10:36 PM,53.6,37.4,54,29.08,10.0,East,6.9,-,N/A,,Overcast,100,2013-09-28 06:36:00
10:56 PM,53.6,37.4,54,29.08,10.0,ESE,10.4,19.6,N/A,,Overcast,110,2013-09-28 06:56:00
11:16 PM,53.6,37.4,54,29.08,10.0,East,8.1,-,N/A,,Overcast,90,2013-09-28 07:16:00
11:36 PM,53.6,37.4,54,29.07,10.0,East,5.8,-,N/A,,Overcast,100,2013-09-28 07:36:00
11:56 PM,53.6,37.4,54,29.07,10.0,East,5.8,-,N/A,,Overcast,100,2013-09-28 07:56:00